Location: Eaton Estates
(41.3089°N, 82.0057°W)
Time: 15:02:00
(UTC+00:00)

SL-19 R/B - Pass Details

Date: 17 June 2021
Orbit: 796 x 1009 km, 99.4° (Epoch: 01 August)

Event Time Altitude Azimuth Distance (km) Brightness Sun altitude
Rises 07:25:43 0° 15° (NNE) 3,316 8.7 -19.9°
Reaches altitude 10° 07:28:02 10° 16° (NNE) 2,391 7.7 -19.7°
Maximum altitude 07:33:18 84° 104° (ESE) 831 4.1 -19.2°
Enters shadow 07:35:52 33° 191° (SSW) 1,378 4.8 -18.9°
